Weather History for KNLC - August, 2013

Change the Weather History Date:

Saturday, August 17, 2013

  Actual Average Record
Temperature  
Mean Temperature 86 °F -  
Max Temperature 104 °F 92 °F 104 °F (2013)
Min Temperature 70 °F 60 °F 52 °F (1998)
Cooling Degree Days 21    
Growing Degree Days 36 (Base 50)    
Moisture  
Dew Point 51 °F    
Average Humidity 34    
Maximum Humidity 59    
Minimum Humidity 15    
Precipitation  
Precipitation 0.00 in - - ()
Sea Level Pressure  
Sea Level Pressure 29.86 in    
Wind  
Wind Speed 9 mph (NNW)    
Max Wind Speed 17 mph    
Max Gust Speed -    
Visibility 10 miles    
Events      
Averages and records for this station are not official NWS values.
T = Trace of Precipitation, MM = Missing Value Source: NWS Daily Summary

Daily Weather History Graph

Daily Weather History Graph

Search for Another Location

Airport or City:

Trip Planner

Search our weather history database for the weather conditions in past years. The results will help you decide how hot, cold, wet, or windy it might be!

Date:

Astronomy

Aug. 17, 2013 Rise Set
Actual Time 6:19 AM PDT 7:47 PM PDT
Civil Twilight 5:52 AM PDT 8:14 PM PDT
Nautical Twilight 5:19 AM PDT 8:46 PM PDT
Astronomical Twilight 4:45 AM PDT 9:21 PM PDT
Moon 5:04 PM PDT (8/17) 2:31 AM PDT (8/17)
Length of Visible Light 14h 22m
Length of Day
13h 27m
Waxing Gibbous, 85% of the Moon is Illuminated
Aug 17
Waxing Gibbous
Aug 20
Full
Aug 28
Last Quarter
Sep 5
New
Sep 12
First Quarter

Hourly Weather History & Observations

Time (PDT) Temp. Heat Index Dew Point Humidity Pressure Visibility Wind Dir Wind Speed Gust Speed Precip Events Conditions
12:56 AM 79.0 °F - 57.0 °F 47% 29.89 in 10.0 mi NW 11.5 mph - N/A   Clear
1:56 AM 77.0 °F - 55.9 °F 48% 29.89 in 10.0 mi NNW 10.4 mph - N/A   Clear
2:56 AM 75.0 °F - 55.0 °F 50% 29.88 in 10.0 mi NW 6.9 mph - N/A   Clear
3:56 AM 73.9 °F - 55.0 °F 52% 29.88 in 10.0 mi NW 8.1 mph - N/A   Clear
4:56 AM 71.1 °F - 55.9 °F 59% 29.89 in 10.0 mi WNW 6.9 mph - N/A   Clear
5:56 AM 70.0 °F - 54.0 °F 57% 29.91 in 10.0 mi NNW 3.5 mph - N/A   Clear
6:56 AM 71.1 °F - 54.0 °F 55% 29.92 in 10.0 mi Calm Calm - N/A   Clear
7:56 AM 75.9 °F - 54.0 °F 46% 29.93 in 10.0 mi Calm Calm - N/A   Clear
8:56 AM 81.0 °F - 52.0 °F 36% 29.94 in 10.0 mi NW 8.1 mph - N/A   Clear
9:56 AM 84.9 °F 83.2 °F 53.1 °F 33% 29.93 in 10.0 mi WNW 10.4 mph - N/A   Clear
10:56 AM 91.0 °F - 48.9 °F 23% 29.92 in 10.0 mi NW 10.4 mph - N/A   Clear
11:56 AM 95.0 °F - 44.1 °F 17% 29.90 in 10.0 mi NW 10.4 mph - N/A   Clear
12:56 PM 97.0 °F - 46.0 °F 18% 29.88 in 10.0 mi North 8.1 mph - N/A   Clear
1:56 PM 100.0 °F - 46.9 °F 16% 29.85 in 10.0 mi NNW 6.9 mph - N/A   Clear
2:56 PM 102.0 °F - 50.0 °F 17% 29.83 in 10.0 mi NNW 9.2 mph - N/A   Clear
3:56 PM 102.9 °F - 46.0 °F 15% 29.80 in 10.0 mi North 9.2 mph - N/A   Clear
4:56 PM 102.0 °F - 51.1 °F 18% 29.78 in 10.0 mi North 15.0 mph - N/A   Clear
5:56 PM 100.0 °F - 48.0 °F 17% 29.77 in 10.0 mi North 17.3 mph - N/A   Clear
6:56 PM 95.0 °F - 50.0 °F 22% 29.78 in 10.0 mi NNW 16.1 mph - N/A   Clear
7:56 PM 90.0 °F - 52.0 °F 27% 29.79 in 10.0 mi NW 13.8 mph - N/A   Clear
8:56 PM 86.0 °F 84.0 °F 53.1 °F 32% 29.80 in 10.0 mi NW 12.7 mph - N/A   Clear
9:56 PM 82.9 °F - 50.0 °F 32% 29.81 in 10.0 mi NW 13.8 mph - N/A   Clear
10:56 PM 80.1 °F - 50.0 °F 35% 29.82 in 10.0 mi NNW 11.5 mph - N/A   Clear
11:56 PM 79.0 °F - 52.0 °F 39% 29.82 in 10.0 mi North 12.7 mph - N/A   Clear